Content
SEND FEEDBACK

Daily
Averages
Monthly
Summary
Spain

SANTA CRUZ DE TENERIFE, SPAIN


Home > Europe > Spain
Elevation: 151 feet     Latitude: 28 27N     Longitude: 016 15W

WEATHER
 
SELECT A DAY
Number of Records: 211,208;   Date Range: 7/1/96 - 11/21/14
 
SHARE

PRINT THIS DATA

[ ← Previous Day ]
WEATHER ALMANAC - JANUARY 1, 2013
[ Next Day → ]
[ °C ]   °F
Weather ElementAverageHighLow
Temperature57.2 °F59 °F (12:00 pm)55.4 °F (6:30 am)
Dewpoint50.2 °F53.6 °F (3:00 pm)46.4 °F (9:00 am)
Humidity77.6 %88 % (3:00 pm)67 % (12:00 pm)
Barometer30.31 in30.36 in (10:30 am)30.27 in (2:30 pm)
Wind Speed5.6 mph11.5 mph (12:00 pm)
Weather ElementAverage
Visibility6.2 mi
Wind DirectionSE (131.9 °)

Weather ElementTotal
Precipitation---
Heating Degree Days7.8 (Base 65)
Growing Degree Days7.2 (Base 50)
Averaged from 32 records on January 1, 2013
WEATHER CONDITIONS BREAKOUT
WIND DIRECTION BREAKOUT
WEATHER BY HOUR - JANUARY 1, 2013
[ °C ]   °F
Local TimeTemperatureDewpointHumidityBarometerVisibilityWind DirectionWind SpeedGust SpeedPrecipitationEventsConditions
6:30 AM55.4 °F48.2 °F77 %30.30 in6.2 miNorth (360°)3.5 mphMostly Cloudy
7:00 AM55.4 °F48.2 °F77 %30.30 in6.2 miNorth (360°)3.5 mphMostly Cloudy
7:30 AM55.4 °F48.2 °F77 %30.30 in6.2 miVariable2.3 mphMostly Cloudy
8:00 AM55.4 °F48.2 °F77 %30.30 in6.2 miVariable2.3 mphMostly Cloudy
8:30 AM55.4 °F48.2 °F77 %30.33 in6.2 miNE (40°)4.6 mphMostly Cloudy
9:00 AM55.4 °F46.4 °F72 %30.33 in6.2 miEast (90°)9.2 mphMostly Cloudy
9:30 AM55.4 °F48.2 °F77 %30.33 in6.2 miVariable2.3 mphMostly Cloudy
10:00 AM55.4 °F48.2 °F77 %30.33 in6.2 miEast (80°)6.9 mphMostly Cloudy
10:30 AM55.4 °F48.2 °F77 %30.36 in6.2 miEast (90°)9.2 mphMostly Cloudy
11:00 AM57.2 °F48.2 °F72 %30.36 in6.2 miESE (110°)5.8 mphMostly Cloudy
11:30 AM57.2 °F50.0 °F77 %30.33 in6.2 miEast (100°)8.1 mphMostly Cloudy
12:00 PM59.0 °F48.2 °F67 %30.33 in6.2 miEast (100°)11.5 mphMostly Cloudy
12:30 PM59.0 °F50.0 °F72 %30.33 in6.2 miESE (110°)10.4 mphMostly Cloudy
1:00 PM59.0 °F50.0 °F72 %30.33 in6.2 miESE (120°)10.4 mphMostly Cloudy
1:30 PM59.0 °F48.2 °F67 %30.30 in6.2 miESE (110°)9.2 mphMostly Cloudy
2:00 PM59.0 °F50.0 °F72 %30.30 in6.2 miEast (100°)9.2 mphMostly Cloudy
2:30 PM59.0 °F51.8 °F77 %30.27 in6.2 miESE (120°)8.1 mphMostly Cloudy
3:00 PM57.2 °F53.6 °F88 %30.27 in6.2 miESE (110°)6.9 mphLight Drizzle
3:30 PM59.0 °F51.8 °F77 %30.30 in6.2 miSE (140°)4.6 mphMostly Cloudy
4:00 PM59.0 °F51.8 °F77 %30.30 in6.2 miVariable2.3 mphMostly Cloudy
4:30 PM57.2 °F51.8 °F82 %30.27 in6.2 miENE (70°)4.6 mphMostly Cloudy
5:00 PM59.0 °F50.0 °F72 %30.27 in6.2 miNE (40°)8.1 mphMostly Cloudy
5:30 PM59.0 °F51.8 °F77 %30.30 in6.2 miNE (50°)5.8 mphLight Drizzle
6:00 PM57.2 °F50.0 °F77 %30.30 in6.2 miVariable2.3 mphMostly Cloudy
6:30 PM57.2 °F50.0 °F77 %30.30 in6.2 miVariable1.2 mphMostly Cloudy
7:00 PM57.2 °F51.8 °F82 %30.30 in6.2 miNNW (330°)3.5 mphMostly Cloudy
7:30 PM57.2 °F51.8 °F82 %30.30 in6.2 miNW (310°)3.5 mphMostly Cloudy
8:00 PM55.4 °F51.8 °F88 %30.30 in6.2 miNW (320°)4.6 mphMostly Cloudy
8:30 PM57.2 °F51.8 °F82 %30.30 in6.2 miVariable1.2 mphScattered Clouds
9:00 PM57.2 °F51.8 °F82 %30.30 in6.2 miNW (320°)5.8 mphScattered Clouds
9:30 PM57.2 °F53.6 °F88 %30.30 in6.2 miNNW (330°)3.5 mphScattered Clouds
10:00 PM57.2 °F53.6 °F88 %30.30 in6.2 miNW (310°)4.6 mphLight Drizzle
Hourly data recorded from GCXO, located miles away from Santa Cruz de Tenerife, Spain







STORIES FROM OUR PARTNERS